Wind_Speed
34 34 34 34 35 35 35 35 36 37 38 38 39 39 40 40 42 42 43 44 44 45 46 47 47 47 47 47 47 48 48 48 48 48 48 49 49 49 50 50 50 50 49
33 34 34 35 35 36 36 37 37 38 38 39 40 41 41 41 42 43 44 44 45 46 46 46 46 47 47 47 48 48 48 49 50 50 50 50 51 51 50 50 51 51 50
34 34 34 34 35 36 37 37 38 38 39 39 40 41 41 42 42 43 44 45 45 46 46 46 46 46 48 48 48 49 49 51 51 52 51 51 51 52 51 51 51 51 51
34 34 35 35 36 36 37 38 39 39 39 39 40 41 42 42 43 43 44 45 46 45 45 46 46 48 48 49 49 50 51 52 52 52 52 52 51 51 52 51 51 51 51
34 35 35 36 37 37 38 38 39 39 40 40 40 40 41 42 43 45 45 45 45 45 46 47 48 49 50 50 51 51 52 52 52 52 51 51 51 52 52 52 51 51 50
34 35 36 37 37 37 37 38 39 39 39 40 40 40 41 42 43 43 44 45 45 45 45 46 47 48 50 50 51 52 52 51 51 51 51 51 50 51 51 52 51 51 50
33 34 35 36 36 37 37 38 38 39 40 40 40 40 41 42 43 43 43 44 44 44 44 45 46 48 49 50 51 51 51 51 50 50 50 50 50 50 51 50 50 50 49
33 34 35 36 36 37 37 38 38 39 39 40 40 41 41 42 42 43 43 44 45 45 46 46 47 48 49 50 50 51 51 50 49 49 49 49 49 49 49 49 48 48 48
33 34 35 35 36 36 37 37 38 39 39 40 41 41 41 41 42 42 43 44 44 46 47 47 48 48 49 49 49 49 49 50 49 49 49 49 48 49 49 48 47 48 47
32 33 33 34 34 35 35 36 37 38 39 39 40 40 40 40 40 41 42 43 43 44 45 46 47 48 48 48 48 48 48 48 48 48 49 49 48 48 48 48 48 48 47
33 33 33 33 34 34 35 36 37 37 38 38 39 39 39 39 40 40 41 42 43 44 45 45 46 46 46 46 47 47 46 46 47 47 48 48 47 47 48 48 48 47 46
33 33 34 34 35 35 36 36 37 37 38 38 39 39 40 40 40 41 42 43 44 45 45 46 46 45 45 45 45 45 45 45 46 46 45 46 46 46 46 46 46 45 45
33 34 34 35 35 35 35 36 37 38 38 38 38 39 39 40 41 41 43 43 44 45 45 46 46 45 45 45 45 45 45 45 45 44 44 44 44 45 45 45 44 44 43
32 32 33 34 34 35 36 37 37 38 38 38 38 39 40 40 41 42 43 44 44 45 45 44 45 45 45 44 44 44 45 44 43 43 42 42 43 42 42 42 42 42 42
31 31 32 33 34 34 35 36 36 37 37 38 39 39 40 41 41 43 43 44 44 44 44 43 44 44 44 43 42 42 42 41 42 42 41 41 41 40 40 40 40 40 39
31 31 32 32 33 33 34 35 35 36 37 38 38 39 40 41 42 42 42 42 42 42 42 42 41 41 42 41 41 40 40 40 41 41 40 39 39 38 38 38 37 37 36
31 31 31 31 32 33 33 34 34 36 36 37 39 39 39 40 41 41 41 41 41 41 41 41 40 40 40 39 39 39 39 39 39 38 37 36 36 36 35 35 35 34 34
30 30 29 30 30 31 32 33 34 35 36 37 38 38 39 39 40 40 41 41 41 41 41 40 39 39 38 38 37 37 37 36 35 35 34 33 33 33 33 33 33 33 32
28 28 28 29 30 31 32 33 34 35 35 36 37 37 38 39 40 40 40 40 40 39 39 39 38 38 37 36 35 35 34 33 32 32 32 32 32 31 31 31 31 30 30
27 27 28 29 30 31 32 33 33 34 34 36 37 37 37 38 38 38 38 37 37 37 37 36 36 35 35 34 33 33 32 31 31 31 30 30 30 29 29 29 29 29 28
27 28 28 29 29 30 31 32 32 33 34 35 36 36 37 37 37 37 36 35 34 34 33 33 33 33 32 31 31 30 29 29 29 29 28 28 28 28 28 28 27 27 26
27 27 28 29 29 30 31 32 32 33 34 35 36 36 36 36 36 35 34 33 33 32 32 31 31 31 30 29 28 27 26 27 27 27 27 27 26 26 26 25 25 24 24
26 27 28 28 29 30 30 31 33 33 34 35 35 35 34 34 33 32 32 31 31 31 31 30 29 29 28 28 27 27 26 26 26 26 26 25 25 24 24 24 24 23 23
26 27 28 29 29 30 31 32 32 33 34 34 34 33 32 31 31 31 30 30 30 29 29 28 27 26 26 25 26 26 26 26 26 25 24 23 23 22 22 22 22 22 22
27 28 29 29 29 30 31 32 33 33 33 33 32 31 30 30 30 30 29 29 28 28 27 26 25 25 24 24 24 24 24 24 24 23 22 22 21 21 20 20 20 20 20
28 29 29 29 30 30 31 32 32 32 32 31 31 30 30 30 29 29 28 28 27 27 26 25 24 24 23 23 22 22 22 22 22 22 22 21 20 20 20 20 20 20 20
Wind_Direction
255 256 257 257 258 259 261 263 263 264 265 265 266 266 267 268 268 270 270 270 274 273 272 272 271 272 274 274 275 275 277 277 278 278 278 278 279 279 279 279 279 279 279
258 258 259 258 259 260 262 263 265 266 267 267 268 268 270 270 271 272 272 273 275 274 273 272 272 272 273 274 275 275 276 277 277 278 278 279 279 280 280 279 278 277 277
258 259 260 261 261 261 263 264 266 267 268 268 269 269 271 271 272 273 274 273 275 275 274 274 274 274 274 275 276 276 276 277 278 278 278 279 279 279 279 279 278 278 277
259 260 261 261 262 262 264 265 266 267 268 269 270 271 272 272 273 273 274 275 275 275 275 275 275 276 278 278 278 278 278 278 278 278 278 279 279 279 279 279 279 278 277
260 261 262 263 263 263 264 266 267 268 269 270 271 272 273 273 273 274 274 275 276 276 276 276 276 278 279 279 278 279 279 280 279 279 279 279 279 278 279 279 279 278 277
262 262 263 264 265 265 265 267 269 270 271 271 271 272 272 273 274 274 275 275 277 277 278 278 277 278 278 278 279 279 280 280 279 279 280 280 279 279 278 278 278 278 277
264 264 265 265 265 265 266 268 268 269 271 271 272 273 273 274 274 275 275 275 276 278 278 278 278 278 278 279 279 279 279 279 279 280 281 281 280 279 279 279 279 278 278
266 267 266 266 267 267 268 268 268 269 271 272 272 274 275 276 276 275 275 275 275 277 278 278 278 279 279 280 280 280 280 279 279 280 281 281 280 279 279 280 279 279 278
269 270 270 269 269 269 269 269 269 270 271 273 274 274 276 277 277 277 277 277 277 278 279 279 279 279 280 280 280 280 279 279 279 280 281 281 280 280 280 279 279 279 279
271 271 271 271 272 272 271 271 271 271 272 274 275 277 277 278 278 278 279 279 279 279 280 281 281 281 281 281 280 280 280 279 279 279 280 281 281 281 281 280 280 280 280
272 272 272 272 273 274 273 273 274 275 275 276 277 279 280 280 280 281 281 280 281 281 281 282 282 282 282 281 281 281 281 280 280 280 280 281 280 281 281 281 280 281 281
273 273 273 272 273 274 275 275 276 276 277 278 279 280 281 281 281 283 283 283 283 282 282 282 282 283 282 280 280 281 281 280 280 280 280 280 280 280 280 280 280 281 281
274 274 274 273 274 275 276 277 278 278 278 280 280 282 282 282 283 284 284 284 284 284 283 282 282 283 281 280 279 279 279 279 280 280 280 280 280 280 280 279 279 279 280
274 274 274 274 275 276 277 278 279 279 279 281 282 282 283 283 284 285 285 286 285 285 285 284 283 283 282 281 280 279 278 278 279 279 279 280 280 280 280 279 278 278 278
275 275 276 277 277 278 278 279 281 282 283 283 284 285 285 285 286 286 286 287 286 286 286 285 284 284 283 282 280 279 278 279 280 279 279 280 280 280 279 279 278 278 277
277 277 277 278 279 279 280 281 283 284 285 286 287 287 287 287 288 288 288 288 287 287 287 286 285 284 284 282 281 281 279 279 279 279 279 279 279 279 278 278 278 277 277
279 279 279 279 280 280 282 283 285 286 288 289 289 290 290 290 291 291 290 289 288 288 287 286 285 284 284 282 282 281 280 280 279 279 278 278 278 277 276 277 278 278 278
280 280 281 281 282 283 285 286 286 287 288 290 292 292 292 293 293 293 293 291 289 288 287 285 284 285 284 283 282 281 280 281 279 277 278 280 280 278 277 277 277 277 277
280 281 282 283 284 286 288 289 289 290 291 292 293 292 293 294 294 294 294 292 290 288 287 285 284 285 284 283 281 280 281 281 280 277 277 279 279 278 278 278 278 277 277
282 283 285 286 287 289 290 291 292 294 295 295 295 294 293 294 295 295 295 293 291 289 288 286 285 285 284 282 280 279 279 279 279 277 277 279 278 278 278 278 277 277 276
284 285 286 287 289 291 292 294 295 296 297 298 297 296 295 295 296 296 296 294 292 290 288 286 284 284 284 281 279 278 278 278 278 277 277 278 277 277 277 278 277 275 274
286 286 287 288 291 293 294 296 297 298 299 299 298 297 296 296 297 297 296 294 293 291 289 287 286 285 283 280 278 277 277 277 278 278 278 277 276 276 277 276 276 274 272
287 288 289 291 293 294 296 297 298 300 301 301 299 298 297 297 297 296 296 295 294 293 291 288 286 285 283 279 276 275 276 276 278 279 278 278 277 277 277 276 275 274 273
288 290 291 293 295 296 297 298 300 301 302 302 301 299 297 297 297 297 296 295 295 294 292 290 287 285 283 280 277 276 276 276 278 280 280 279 277 276 277 277 276 275 273
290 292 294 295 296 297 298 300 301 302 302 302 301 299 298 297 298 298 298 296 296 296 294 290 287 285 283 281 280 278 277 277 278 279 279 278 276 275 275 276 277 276 274
291 293 294 295 296 298 300 301 302 303 303 302 301 300 299 298 298 298 298 297 297 297 295 291 288 285 282 280 279 278 277 278 278 277 276 275 274 274 275 276 277 277 275
Height
5647 5648 5650 5652 5653 5655 5656 5657 5657 5658 5659 5660 5661 5661 5662 5662 5662 5663 5662 5662 5661 5661 5661 5661 5660 5659 5659 5658 5658 5657 5656 5655 5654 5655 5652 5650 5648 5647 5645 5644 5642 5642 5640
5638 5639 5641 5642 5644 5645 5646 5647 5648 5648 5649 5650 5650 5651 5651 5651 5651 5651 5651 5650 5649 5649 5648 5648 5647 5646 5646 5645 5644 5643 5642 5641 5640 5640 5639 5637 5635 5633 5631 5630 5628 5627 5626
5629 5631 5632 5633 5634 5636 5637 5637 5638 5638 5639 5639 5639 5640 5640 5640 5639 5639 5638 5637 5637 5636 5635 5635 5634 5633 5633 5632 5630 5629 5628 5626 5625 5625 5624 5622 5620 5618 5617 5616 5614 5613 5612
5620 5621 5623 5624 5625 5626 5627 5627 5628 5628 5628 5629 5628 5628 5628 5628 5627 5626 5626 5625 5624 5624 5623 5622 5621 5620 5619 5618 5617 5615 5614 5612 5611 5609 5609 5608 5606 5603 5602 5601 5600 5598 5597
5611 5612 5613 5614 5614 5615 5616 5617 5617 5617 5618 5618 5617 5617 5617 5616 5615 5614 5613 5612 5612 5611 5610 5608 5607 5606 5604 5603 5602 5601 5599 5597 5596 5594 5593 5592 5591 5589 5587 5585 5584 5583 5582
5602 5603 5603 5604 5604 5604 5605 5606 5606 5606 5606 5606 5606 5605 5605 5604 5603 5601 5601 5600 5599 5598 5597 5595 5594 5592 5590 5589 5587 5585 5584 5582 5580 5579 5578 5577 5576 5574 5572 5570 5569 5568 5568
5592 5593 5593 5594 5594 5594 5594 5595 5595 5595 5594 5594 5594 5593 5592 5591 5590 5589 5588 5587 5586 5585 5583 5582 5580 5578 5576 5575 5573 5571 5569 5567 5565 5564 5563 5561 5561 5559 5557 5556 5553 5552 5551
5583 5583 5583 5583 5583 5583 5583 5583 5583 5583 5583 5582 5582 5581 5580 5579 5577 5576 5575 5574 5573 5572 5570 5568 5566 5564 5562 5561 5559 5557 5555 5553 5552 5550 5549 5548 5545 5544 5542 5540 5538 5537 5537
5573 5573 5573 5573 5573 5572 5572 5572 5572 5572 5571 5571 5570 5569 5568 5566 5565 5563 5562 5561 5560 5559 5557 5554 5552 5551 5549 5547 5545 5543 5542 5540 5538 5536 5534 5533 5531 5529 5527 5525 5524 5522 5522
5563 5563 5563 5563 5562 5562 5562 5561 5561 5560 5560 5559 5558 5556 5555 5554 5552 5551 5549 5548 5548 5546 5544 5541 5539 5536 5534 5532 5530 5529 5528 5526 5524 5522 5521 5519 5517 5515 5512 5511 5509 5508 5507
5553 5553 5553 5553 5552 5552 5551 5550 5550 5549 5548 5547 5546 5545 5543 5542 5540 5538 5537 5535 5533 5532 5530 5528 5525 5522 5520 5518 5516 5514 5513 5512 5510 5509 5507 5505 5503 5501 5499 5497 5495 5493 5493
5544 5543 5543 5543 5542 5541 5540 5539 5538 5537 5536 5535 5534 5532 5531 5529 5528 5525 5523 5521 5519 5517 5516 5514 5511 5509 5507 5504 5502 5500 5499 5497 5496 5494 5493 5491 5489 5487 5485 5483 5481 5480 5479
5534 5533 5533 5532 5531 5530 5530 5529 5527 5526 5525 5524 5522 5521 5519 5517 5515 5513 5511 5508 5506 5503 5501 5499 5497 5495 5493 5490 5488 5487 5485 5483 5481 5480 5479 5477 5475 5473 5471 5470 5468 5467 5466
5524 5523 5522 5522 5521 5520 5519 5518 5517 5515 5514 5513 5511 5509 5507 5505 5503 5501 5498 5495 5493 5490 5487 5485 5483 5480 5478 5476 5474 5472 5471 5469 5467 5466 5465 5463 5461 5459 5458 5456 5455 5454 5453
5514 5513 5512 5511 5511 5510 5508 5507 5506 5504 5502 5501 5499 5497 5495 5493 5490 5488 5485 5482 5479 5477 5474 5471 5469 5466 5464 5462 5460 5458 5457 5455 5454 5453 5451 5450 5448 5447 5445 5444 5442 5441 5440
5504 5503 5502 5501 5500 5499 5498 5497 5494 5493 5491 5489 5487 5485 5482 5480 5477 5474 5471 5468 5466 5463 5460 5458 5456 5453 5451 5449 5447 5445 5444 5443 5441 5440 5439 5437 5436 5435 5434 5432 5431 5430 5428
5495 5493 5492 5491 5490 5489 5488 5486 5485 5483 5480 5478 5475 5473 5470 5467 5465 5462 5459 5456 5453 5450 5448 5445 5443 5441 5439 5437 5435 5433 5432 5430 5429 5428 5427 5425 5424 5423 5422 5421 5420 5419 5418
5485 5484 5482 5481 5480 5479 5477 5476 5474 5472 5470 5467 5464 5461 5458 5456 5453 5450 5446 5443 5440 5438 5435 5433 5431 5429 5427 5425 5423 5421 5420 5419 5417 5417 5416 5415 5413 5412 5412 5411 5410 5409 5408
5476 5475 5473 5472 5471 5469 5468 5466 5464 5462 5459 5456 5453 5450 5447 5444 5441 5438 5434 5431 5429 5426 5423 5421 5419 5417 5415 5413 5411 5410 5409 5408 5407 5406 5406 5405 5404 5403 5402 5401 5400 5399 5398
5468 5466 5465 5463 5462 5460 5458 5456 5454 5451 5448 5446 5443 5439 5436 5433 5429 5426 5422 5419 5417 5414 5412 5410 5408 5406 5404 5403 5401 5400 5399 5398 5397 5397 5396 5395 5394 5394 5393 5392 5391 5391 5390
5459 5458 5456 5455 5453 5451 5449 5446 5444 5441 5438 5435 5432 5428 5425 5422 5418 5415 5412 5409 5406 5404 5402 5399 5397 5396 5394 5393 5392 5391 5390 5389 5388 5388 5387 5386 5386 5385 5384 5383 5383 5382 5381
5451 5450 5448 5446 5444 5442 5440 5437 5434 5431 5428 5425 5421 5417 5414 5411 5408 5405 5402 5399 5396 5394 5391 5389 5388 5386 5384 5383 5383 5382 5381 5381 5380 5379 5379 5378 5377 5377 5376 5375 5375 5374 5374
5444 5442 5440 5438 5436 5434 5431 5428 5425 5422 5418 5414 5411 5407 5404 5400 5398 5395 5392 5389 5387 5384 5382 5380 5378 5377 5375 5374 5374 5374 5373 5373 5372 5371 5371 5370 5369 5369 5368 5368 5367 5367 5367
5436 5434 5432 5430 5427 5425 5422 5419 5416 5412 5409 5405 5401 5397 5394 5391 5389 5386 5383 5380 5378 5375 5373 5371 5369 5368 5367 5366 5365 5365 5365 5364 5364 5363 5363 5362 5362 5362 5361 5361 5360 5360 5360
5428 5426 5424 5422 5419 5416 5413 5410 5407 5403 5399 5395 5392 5388 5385 5383 5380 5377 5374 5371 5369 5367 5364 5362 5361 5360 5359 5358 5357 5357 5357 5357 5356 5356 5355 5355 5355 5355 5354 5354 5354 5354 5353
5420 5418 5416 5413 5410 5408 5405 5401 5398 5394 5390 5386 5383 5380 5377 5374 5371 5368 5366 5363 5361 5358 5356 5354 5353 5352 5351 5350 5350 5350 5349 5349 5348 5348 5348 5348 5348 5348 5348 5347 5347 5347 5347